Change the Weather History Date:

Thursday, July 4, 2013

  Actual Average Record
Temperature  
Mean Temperature 78 °F -  
Max Temperature 91 °F 89 °F 102 °F (2012)
Min Temperature 64 °F 65 °F 55 °F (1997)
Cooling Degree Days 12    
Growing Degree Days 28 (Base 50)    
Moisture  
Dew Point 51 °F    
Average Humidity 43    
Maximum Humidity 63    
Minimum Humidity 22    
Precipitation  
Precipitation 0.00 in - - ()
Sea Level Pressure  
Sea Level Pressure 29.92 in    
Wind  
Wind Speed 7 mph (SSE)    
Max Wind Speed 16 mph    
Max Gust Speed 21 mph    
Visibility 10 miles    
Events      
Averages and records for this station are not official NWS values.
T = Trace of Precipitation, MM = Missing Value Source: NWS Daily Summary

Daily Weather History Graph

Daily Weather History Graph

Search for Another Location

Airport or City:

Trip Planner

Search our weather history database for the weather conditions in past years. The results will help you decide how hot, cold, wet, or windy it might be!

Date:

Astronomy

Jul. 04, 2013 Rise Set
Actual Time 6:13 AM CDT 8:57 PM CDT
Civil Twilight 5:42 AM CDT 9:28 PM CDT
Nautical Twilight 5:03 AM CDT 10:07 PM CDT
Astronomical Twilight 4:19 AM CDT 10:51 PM CDT
Moon 3:30 AM CDT (7/4) 6:04 PM CDT (7/4)
Length of Visible Light 15h 46m
Length of Day
14h 43m
Waning Crescent, 11% of the Moon is Illuminated
Jul 4
Waning Crescent
Jul 8
New
Jul 15
First Quarter
Jul 22
Full
Jul 29
Last Quarter

Hourly Weather History & Observations

Time (CDT) Temp. Heat Index Dew Point Humidity Pressure Visibility Wind Dir Wind Speed Gust Speed Precip Events Conditions
12:52 AM 66.0 °F - 50.0 °F 56% 29.97 in 10.0 mi SE 4.6 mph - N/A   Partly Cloudy
1:52 AM 64.0 °F - 50.0 °F 60% 29.97 in 10.0 mi Calm Calm - N/A   Partly Cloudy
2:52 AM 66.9 °F - 51.1 °F 57% 29.94 in 10.0 mi SSE 8.1 mph - 0.00 in   Clear
3:52 AM 66.0 °F - 50.0 °F 56% 29.96 in 10.0 mi East 3.5 mph - N/A   Clear
4:52 AM 66.9 °F - 50.0 °F 54% 29.96 in 10.0 mi ESE 6.9 mph - N/A   Scattered Clouds
5:52 AM 68.0 °F - 51.1 °F 55% 29.94 in 10.0 mi South 16.1 mph - N/A   Clear
6:52 AM 66.9 °F - 52.0 °F 59% 29.94 in 10.0 mi SSE 3.5 mph - N/A   Scattered Clouds
7:52 AM 66.9 °F - 54.0 °F 63% 29.96 in 10.0 mi East 3.5 mph - N/A   Overcast
8:52 AM 68.0 °F - 55.0 °F 63% 29.99 in 10.0 mi ENE 5.8 mph - N/A   Overcast
9:52 AM 75.0 °F - 54.0 °F 48% 29.99 in 10.0 mi SE 3.5 mph - N/A   Overcast
10:52 AM 77.0 °F - 54.0 °F 45% 29.98 in 10.0 mi SSE 4.6 mph - N/A   Clear
11:52 AM 86.0 °F 84.0 °F 53.1 °F 32% 29.95 in 10.0 mi South 13.8 mph - N/A   Clear
12:52 PM 84.9 °F - 48.9 °F 29% 29.94 in 10.0 mi South 12.7 mph - N/A   Clear
1:52 PM 89.1 °F - 50.0 °F 26% 29.92 in 10.0 mi South 10.4 mph 20.7 mph N/A   Clear
2:52 PM 90.0 °F - 48.9 °F 24% 29.90 in 10.0 mi SSW 11.5 mph 18.4 mph N/A   Clear
3:52 PM 91.0 °F - 48.0 °F 23% 29.88 in 10.0 mi SSW 9.2 mph - N/A   Partly Cloudy
4:52 PM 91.0 °F - 46.9 °F 22% 29.87 in 10.0 mi South 12.7 mph - N/A   Clear
5:52 PM 90.0 °F - 51.1 °F 26% 29.85 in 10.0 mi SE 13.8 mph 17.3 mph N/A   Clear
6:52 PM 87.1 °F - 48.9 °F 27% 29.85 in 10.0 mi SE 16.1 mph - N/A   Clear
7:52 PM 84.9 °F - 52.0 °F 32% 29.86 in 10.0 mi SE 12.7 mph - N/A   Clear
8:52 PM 81.0 °F 80.5 °F 54.0 °F 39% 29.86 in 10.0 mi North - - N/A   Clear
9:52 PM 78.1 °F - 53.1 °F 42% 29.87 in 10.0 mi SE 11.5 mph - N/A   Clear
10:52 PM 75.9 °F - 53.1 °F 45% 29.89 in 10.0 mi SE 11.5 mph - N/A   Clear
11:52 PM 75.0 °F - 54.0 °F 48% 29.88 in 10.0 mi SE 12.7 mph - N/A   Clear